Location: ???? ????
(31.2831°N, 45.5190°E)
Time: 02:53:21
(UTC+00:00)

N. Korean satellite - Visible Passes

Search period start: 21 September 2021 00:00
Search period end: 01 October 2021 00:00
Orbit: 448 x 498 km, 97.3° (Epoch: 20 September)

Date Brightness Start Highest point End Pass type
(mag) Time Alt. Az. Time Alt. Az. Time Alt. Az.
21 Sep 6.5 02:19:28 10° N 02:22:58 64° WNW 02:26:30 10° SSW visible
22 Sep 7.8 01:51:49 10° NNE 01:55:14 45° E 01:58:42 10° S visible
23 Sep 9.5 01:24:54 10° NE 01:27:26 18° E 01:29:59 10° SE visible
25 Sep 7.0 02:01:38 10° NNE 02:05:12 67° ESE 02:08:46 10° S visible
26 Sep 9.0 01:34:22 10° NE 01:37:23 25° E 01:40:26 10° SSE visible
27 Sep 10.2 01:08:48 10° E 01:09:30 10° E 01:10:13 10° ESE visible
28 Sep 6.5 02:11:29 10° N 02:15:04 85° WNW 02:18:42 10° SSW visible
29 Sep 8.4 01:43:58 10° NNE 01:47:17 35° E 01:50:38 10° SSE visible
30 Sep 9.8 01:17:19 10° ENE 01:19:25 15° E 01:21:30 10° SE visible
